Showing default

CANX-4, 40055

Orbit data source: Space-Track

CANX-4, 40055 is a payload satellite owned by UTIAS-SFL (CA) in SSO that was launched on Mon, 30 Jun 2014 UTC via a PSLV launch vehicle from the Sirharikota (SRI). Payload-class satellites include a variety of spacecraft equipped with specific instruments for various scientific and technological missions. These include communications satellites like Starlink; space stations such as the ISS; scientific satellites like the Hubble; Earth observation satellites from companies like Planet Labs, Umbra, and HawkEye 360; GPS; miniature CubeSats for education and research; and military/defense satellites.

Loading next visibility...
Identifier
40055, 2014-034C
Orbit
SSO
Country
Flag of CACA
Related business
Manufacturer
UTIAS-SFL
Mission
Operational Amateur Technology
Bus & Motor
GNB, Unknown motor
Mass
7 kg wet, 7 kg dry
Launch date (UTC)
2014-06-30 (11 years ago)
Launch vehicle
PSLV
Launch site
Sirharikota (SRI)
Object type
Payload
Rocket body
Debris
Shape & HBR
Box + 4 Ant, 0.1 m
Radar Cross Section
0.060 m², Medium (>0.1 m² and < 1m²)

Expand to show TLE details & history
Last TLE update: 19 hours ago

TLE from 19 hours ago
0 CANX-4
1 40055U 14034C   25309.58697878  .00001471  00000-0  19880-3 0  9995
2 40055  98.3400 171.3331 0013347  15.0865 345.0742 14.80625652611431
Epoch: 2025-11-05T14:05Z
TLE epoch observation values (Epoch: 2025-11-05T14:05:14.966Z)
Latitude
0.00003°
Longitude
-85.03677°
Altitude
621.323 km
Speed
7.553 km/s
True Right ascension
11h 25m 19s
True Declination
0° 00' 00"
Sunlit
Object was in daylight at epoch
Visualization orbit readout
Latitude
Unknown
Longitude
Unknown
Altitude
Unknown
Speed
Unknown
Apparent Right ascension
Unknown
Apparent Declination
Unknown
Sunlit
N/A
Visualization observer readout
Local Sidereal Time
05:11:40
Azimuth
Unknown
Elevation
Unknown
Doppler factor
Unknown
Orbital elements
Apogee altitude
633.757 km
Perigee altitude
615.064 km
Semi-major axis
7,002.547 km
Eccentricity
0.00133
Inclination
98.34°
RAAN
171.3331°
Arg. of periapsis
15.0865°
True anomaly
345.03474°
Mean anomaly
345.0742°
Eccentric anomaly
345.05448°
Mean motion
3.7039 °/min
Orbital period
97.19 mins
BSTAR
0.0001988
Loading maneuver chart data...
Computing Atmospheric mass density...
Loading historical data...
Loading historical data...
Loading historical data...
Loading historical data...
Loading historical data...
Loading historical data...
Loading historical data...
Other satellites on launch #34 in the year 2014 (2014-06-30 UTC)

Documentation

Showing up to 5 results
|